Probability
0 0 0 0 0 0 0 0 0 0 0 0 0 0 0 0 0 0 0 0 0 0 0 0 0 0 0 0 0 0 0 0 0 0 0 0 0 0 0 0 0 0 0
0 0 0 0 0 0 0 0 0 0 0 0 0 0 0 0 0 0 0 0 0 0 0 0 0 0 0 0 0 0 0 0 0 0 0 0 0 0 0 0 0 0 0
0 0 0 0 0 0 0 0 0 0 0 0 0 0 0 0 0 0 0 0 0 0 0 0 0 0 0 0 0 0 0 0 0 0 0 0 0 0 0 0 0 0 0
0 0 0 0 0 0 0 0 0 0 0 0 0 0 0 0 0 0 0 0 0 0 0 0 0 0 0 0 0 0 0 0 0 0 0 0 0 0 0 0 0 0 0
0 0 0 0 0 0 0 0 0 0 0 0 0 0 0 0 0 0 0 0 0 0 0 0 0 0 0 0 0 0 0 0 0 0 0 0 0 0 0 0 0 0 0
0 0 0 0 0 0 0 0 0 0 0 0 0 0 0 0 0 0 0 0 0 0 0 0 0 0 0 0 0 0 0 0 0 0 0 0 0 0 0 0 0 0 0
0 0 0 0 0 0 0 0 0 0 0 0 0 0 0 0 0 0 0 0 0 0 0 0 0 0 0 0 0 0 0 0 0 0 0 0 0 0 0 0 0 0 0
0 0 0 0 0 0 0 0 0 0 0 0 0 0 0 0 0 0 0 0 0 0 0 0 0 0 0 0 0 0 0 0 0 0 0 0 0 0 0 0 0 0 0
0 0 0 0 0 0 0 0 0 0 0 0 0 0 0 0 0 0 0 0 0 0 0 0 0 0 0 0 0 0 0 0 0 0 0 0 0 0 0 0 0 0 0
0 0 0 0 0 0 0 0 0 0 0 0 0 0 0 0 0 0 0 0 0 0 0 0 0 0 0 0 0 0 0 0 0 0 0 0 0 0 0 0 0 0 0
0 0 0 0 0 0 0 0 0 0 0 0 0 0 0 0 0 0 0 0 0 0 0 0 0 0 0 0 0 0 0 0 0 0 0 0 0 0 0 0 0 0 0
0 0 0 0 0 0 0 0 0 0 0 0 0 0 0 0 0 0 0 0 0 0 0 0 0 0 0 0 0 0 0 0 0 0 0 0 0 0 0 0 0 0 0
0 0 0 0 0 0 0 0 0 0 0 0 0 0 0 0 0 0 0 0 0 0 0 0 0 0 0 0 0 0 0 0 0 0 0 0 0 0 0 0 0 0 0
0 0 0 0 0 0 0 0 0 0 0 0 0 0 0 0 0 0 0 0 0 0 0 0 0 0 0 0 0 0 0 0 0 0 0 0 0 0 0 0 0 0 0
0 0 0 0 0 0 0 0 0 0 0 0 0 0 0 0 0 0 0 0 0 0 0 0 0 0 0 0 0 0 0 0 0 0 0 0 0 0 0 0 0 0 0
0 0 0 0 0 0 0 0 0 0 0 0 0 0 0 0 0 0 0 0 0 0 0 0 0 0 0 0 0 0 0 0 0 0 0 0 0 0 0 0 0 0 0
0 0 0 0 0 0 0 0 0 0 0 0 0 0 0 0 0 0 0 0 0 0 0 0 0 0 0 0 0 0 0 0 0 0 0 0 0 0 0 0 0 0 0
0 0 0 0 0 0 0 0 0 0 0 0 0 0 0 0 0 0 0 0 0 0 0 0 0 0 0 0 0 0 0 0 0 0 0 0 0 0 0 0 0 0 0
0 0 0 0 0 0 0 0 0 0 0 0 0 0 0 0 0 0 0 0 0 0 0 0 0 0 0 0 0 0 0 0 0 0 0 0 0 0 0 0 0 0 0
0 0 0 0 0 0 0 0 0 0 0 0 0 0 0 0 0 0 0 0 0 0 0 0 0 0 0 0 0 0 0 0 0 0 0 0 0 0 0 0 0 0 0
0 0 0 0 0 0 0 0 0 0 0 0 0 0 0 0 0 0 0 0 0 0 0 0 0 0 0 0 0 0 0 0 0 0 0 0 0 0 0 0 0 0 0
0 0 0 0 0 0 0 0 0 0 0 0 0 0 0 0 0 0 0 0 0 0 0 0 0 0 0 0 0 0 0 0 0 0 0 0 0 0 0 0 0 0 0
0 0 0 0 0 0 0 0 0 0 0 0 0 0 0 0 0 0 0 0 0 0 0 0 0 0 0 0 0 0 0 0 0 0 0 0 0 0 0 0 0 0 0
0 0 0 0 0 0 0 0 0 0 0 0 0 0 0 0 0 0 0 0 0 0 0 0 0 0 0 0 0 0 0 0 0 0 0 0 0 0 0 0 0 0 0
0 0 0 0 0 0 0 0 0 0 0 0 0 0 0 0 0 0 0 0 0 0 0 0 0 0 0 0 0 0 0 0 0 0 0 0 0 0 0 0 0 0 0
0 0 0 0 0 0 0 0 0 0 0 0 0 0 0 0 0 0 0 0 0 0 0 0 0 0 0 0 0 0 0 0 0 0 0 0 0 0 0 0 0 0 0
Wind_Speed
2 2 1 2 2 2 2 2 2 2 2 3 3 3 3 3 3 3 3 3 4 3 3 4 4 3 2 2 2 2 3 3 5 3 2 2 2 2 3 2 2 3 3
2 2 2 2 2 2 2 3 2 2 2 3 3 3 4 4 4 4 4 4 4 4 4 4 4 3 4 3 3 3 4 4 4 5 3 2 3 3 3 3 3 2 3
2 2 2 2 2 2 3 3 2 2 3 3 3 3 4 4 4 5 5 5 5 5 5 5 5 4 5 4 4 4 3 4 4 4 4 2 2 2 2 2 3 2 3
2 2 2 3 3 3 3 3 3 3 3 3 3 3 4 4 5 5 5 5 5 5 5 5 5 5 5 5 5 5 4 4 4 4 3 3 2 2 2 2 3 2 3
2 3 3 3 3 3 3 3 3 2 3 3 3 4 4 4 4 4 5 5 5 5 5 5 5 6 7 5 4 4 4 4 4 4 4 3 3 2 3 2 3 3 3
3 4 4 3 3 3 3 3 2 2 2 3 3 4 4 4 7 8 5 5 5 5 5 4 5 6 7 8 8 7 6 5 5 5 4 5 5 4 3 3 3 2 4
4 4 4 3 4 4 3 3 3 3 3 3 4 4 4 6 9 9 8 5 5 5 5 4 4 5 6 5 7 8 8 9 8 6 6 6 5 4 4 4 4 4 4
4 4 4 4 4 4 3 4 3 3 3 3 4 4 4 6 9 8 7 4 4 5 5 5 5 5 5 5 4 5 5 6 7 6 6 6 5 4 5 4 4 3 2
5 5 5 4 4 4 4 4 3 3 4 4 4 4 5 6 9 9 6 3 4 5 5 5 5 5 7 6 4 4 4 4 5 6 6 5 6 5 3 1 2 2 3
5 5 5 4 4 5 5 4 3 3 4 4 4 4 5 6 8 9 7 3 4 4 4 4 7 7 8 6 4 4 5 4 2 2 3 4 3 4 4 4 4 3 2
5 4 4 4 4 4 3 3 3 3 3 4 5 5 5 6 8 9 8 3 3 4 3 3 4 8 8 7 6 4 5 3 2 2 2 2 1 2 2 2 3 4 3
3 4 4 4 3 2 3 3 3 3 4 4 4 5 4 5 7 8 9 7 5 4 4 3 4 8 8 7 5 4 4 2 1 1 2 2 2 2 2 1 1 1 2
3 4 4 3 3 2 3 3 3 3 3 4 4 4 4 3 5 9 8 8 7 4 3 5 6 7 5 4 4 4 2 1 2 2 2 2 2 2 1 1 0 0 1
3 4 3 2 2 2 2 3 3 4 4 4 4 4 4 3 3 3 3 3 4 3 2 3 4 4 2 3 2 1 1 2 2 3 2 1 1 1 1 1 1 0 0
3 3 3 2 2 2 2 3 4 4 4 4 4 3 4 4 5 7 4 3 2 2 1 0 1 1 1 1 1 1 1 1 1 1 1 1 1 1 1 1 1 1 1
3 2 2 2 2 2 2 3 4 5 6 7 7 6 5 7 7 7 6 5 4 2 1 1 2 2 2 2 2 2 2 2 1 1 2 2 2 2 1 1 1 1 2
3 3 2 2 2 2 2 2 3 4 5 5 6 7 6 6 6 5 5 4 3 2 1 1 2 2 2 2 2 2 2 2 1 1 2 2 2 2 2 2 1 1 2
3 3 3 2 2 2 2 2 2 3 4 4 5 6 6 6 5 5 3 2 1 1 1 2 2 2 2 2 2 2 2 1 1 2 2 2 2 2 2 2 2 2 2
2 2 2 2 2 2 2 2 2 3 3 3 3 4 5 5 4 4 3 1 1 2 2 2 2 2 2 2 2 2 2 2 2 2 2 2 2 2 2 2 2 3 2
2 4 3 2 2 2 2 2 2 2 3 3 3 3 3 3 2 2 2 1 1 2 2 2 2 2 2 2 2 2 2 2 2 2 2 2 2 2 3 3 2 2 2
2 2 4 2 2 2 2 2 2 2 3 3 3 4 5 2 2 2 2 2 2 2 2 2 2 2 2 2 2 2 2 2 2 2 2 1 1 1 1 2 2 1 1
1 2 2 2 2 2 2 2 2 2 3 3 4 4 6 3 2 2 2 2 2 2 2 2 2 2 2 2 2 2 2 3 2 2 2 1 1 1 1 1 1 1 1
1 2 2 2 2 3 3 2 2 2 3 3 3 3 3 3 2 2 3 3 2 2 2 2 2 2 2 2 2 3 3 3 3 3 2 2 2 1 1 1 1 1 1
1 2 2 2 2 2 2 2 3 3 3 3 3 3 3 3 3 3 3 2 2 2 2 2 2 2 2 2 1 1 2 2 2 3 4 3 2 2 1 1 1 1 1
1 2 2 2 2 2 2 3 3 3 3 3 3 3 3 3 3 3 3 2 2 2 2 2 1 1 2 2 2 2 3 3 2 2 3 3 3 2 2 2 1 1 1
2 2 2 2 2 2 2 2 3 3 3 3 3 3 3 3 3 3 3 2 2 2 2 2 1 2 2 2 2 2 2 3 3 3 2 2 2 2 2 1 2 1 1
Wind_Direction
283 283 291 288 286 276 259 251 251 254 248 240 241 247 249 247 239 232 234 225 227 238 237 232 241 246 249 247 241 236 238 241 256 272 253 246 235 246 272 265 257 257 263
266 268 265 269 271 268 270 266 259 259 256 250 247 249 255 251 241 234 236 232 227 232 234 235 244 241 244 242 238 239 239 238 243 266 269 250 244 236 246 257 273 273 266
257 261 273 277 272 264 264 269 265 263 271 270 256 255 260 256 245 236 233 230 230 234 233 233 240 233 239 238 239 241 244 248 242 247 261 255 257 244 248 269 268 267 272
262 260 261 263 262 260 259 261 263 260 259 265 268 260 260 259 250 240 235 231 230 234 234 236 239 233 234 232 235 236 239 245 245 245 250 251 250 250 231 248 272 264 273
260 259 260 262 263 260 258 259 259 251 258 263 268 269 265 261 253 245 237 235 232 236 239 241 245 251 252 245 246 237 233 238 242 244 248 248 239 232 236 236 255 277 280
256 259 262 255 256 257 256 256 255 256 260 263 265 271 270 268 274 265 252 233 232 237 243 246 251 250 257 261 264 260 249 240 241 240 246 245 241 236 239 233 244 265 275
257 259 259 251 252 256 258 251 252 253 256 259 262 266 270 274 283 275 264 243 234 239 243 245 253 255 256 252 256 261 256 255 247 241 241 241 239 232 226 233 234 245 259
257 254 251 245 248 255 248 242 247 252 255 256 259 260 268 276 284 279 272 247 239 240 239 238 245 249 249 252 251 256 254 253 253 245 238 238 238 228 219 226 230 249 280
257 250 247 243 246 252 249 246 246 250 256 256 260 258 265 278 284 278 272 242 246 247 243 241 246 246 257 262 252 255 266 274 277 272 269 265 260 251 234 194 200 222 266
260 257 251 245 242 245 245 245 249 252 256 258 263 259 259 269 280 277 268 242 251 257 251 248 256 260 260 257 244 241 253 262 272 292 280 270 249 231 227 218 211 217 242
274 273 261 251 246 241 243 243 244 254 260 261 266 267 262 268 277 271 265 245 244 256 256 252 255 268 268 267 264 248 255 263 244 248 260 264 256 232 230 225 219 214 224
285 276 262 258 254 242 237 244 241 242 251 258 265 272 266 269 277 269 266 267 264 248 251 251 260 271 274 275 272 270 271 271 234 229 239 245 252 256 255 243 241 245 244
286 277 268 265 262 250 239 248 249 242 249 261 264 271 278 270 271 274 270 272 275 267 254 266 275 276 279 276 281 282 277 245 230 231 240 250 249 246 246 261 333 41 310
279 279 276 264 269 272 260 249 248 244 248 258 266 273 283 282 274 271 260 258 269 279 275 268 275 278 288 292 280 286 281 247 236 232 241 250 247 226 229 225 224 202 336
276 274 278 272 265 269 274 267 264 250 248 259 257 256 266 270 276 284 285 265 250 247 259 255 250 251 267 266 283 277 267 264 261 235 215 227 230 226 241 239 223 221 223
277 277 277 279 278 278 283 302 292 287 285 281 280 277 275 278 289 288 287 283 282 276 267 218 234 236 243 248 252 259 261 254 242 226 217 214 218 223 239 249 232 225 235
269 277 277 280 277 280 283 284 300 310 307 302 298 295 293 293 293 295 297 290 271 258 250 239 242 242 244 247 247 249 256 251 242 233 229 217 216 215 216 228 233 242 244
278 279 282 272 273 273 276 281 287 300 314 316 315 310 310 307 306 306 309 323 285 280 259 253 253 251 249 246 243 245 246 237 227 234 226 217 211 212 214 220 223 228 241
289 287 283 281 281 280 283 287 293 297 302 307 318 323 321 317 315 314 318 295 267 275 276 266 259 254 256 250 242 236 234 236 231 224 223 221 214 211 217 220 226 226 234
287 296 307 295 288 287 286 288 295 300 304 304 306 310 321 329 322 319 320 302 276 275 277 274 269 258 249 246 245 239 240 238 226 221 222 224 218 214 213 213 219 226 236
281 290 302 300 284 280 280 280 286 291 296 299 298 306 318 318 301 300 297 290 275 272 273 267 260 256 249 244 237 227 228 233 229 223 223 220 214 223 221 202 202 208 212
269 275 280 276 278 280 284 282 282 286 293 299 306 310 313 313 300 298 296 293 286 276 270 262 258 254 245 236 227 219 220 224 223 212 204 204 208 217 217 186 176 177 180
277 285 291 292 289 300 308 305 298 294 294 296 302 307 308 305 301 297 294 296 297 294 288 265 255 263 263 250 234 221 217 220 217 201 190 193 197 202 199 184 184 191 202
284 282 286 294 300 302 302 303 300 295 295 298 300 300 298 297 296 294 292 293 295 294 290 280 266 259 269 274 258 240 228 220 204 193 187 188 194 197 196 190 197 193 194
263 272 277 280 283 286 290 294 296 297 297 297 297 298 297 297 297 297 297 296 296 296 297 293 283 267 266 269 257 238 221 212 210 185 179 178 180 188 192 190 185 174 185
254 258 262 266 268 271 274 280 286 291 292 295 294 293 294 295 296 299 303 304 307 306 305 305 297 286 278 269 244 231 216 197 187 176 171 167 168 177 183 183 175 173 170